Location: Rotheul
(50.2849°N, 11.2349°E)
Time: 15:28:35
(UTC+02:00)

ISS - Pass Details

Date: 14 July 2018
Orbit: 402 x 408 km, 51.6° (Epoch: 21 July)

Event Time Altitude Azimuth Distance (km) Brightness Sun altitude
Exits shadow 01:07:49 14° 98° (E) 1,269 -1.4 -17.9°
Drops below altitude 10° 01:08:27 10° 90° (E) 1,469 -1.0 -17.9°
Sets 01:10:49 0° 75° (ENE) 2,335 0.2 -18.0°
